�N����,����,�~����,�C��,���x,�C��,����,���ϕ���,�ő�u�ԕ���,�ő厞����,���˗�,�I�_���x,�n�����x,�ő啗���N��,DTYPE
"18/04/24","00:10",0.0,18.0,75.6,1011.2,316.6,1.1,1.3,323.7,0.00,13.7,17.5,"00:05:44",1
"18/04/24","00:20",0.0,18.1,76.0,1010.9,332.0,1.2,1.7,337.5,0.00,13.8,17.6,"00:16:16",1
"18/04/24","00:30",0.0,17.9,77.6,1010.4,334.7,1.1,1.6,338.8,0.00,14.0,17.6,"00:24:16",1
"18/04/24","00:40",0.0,17.7,77.1,1010.7,309.7,1.0,1.4,319.2,0.00,13.7,17.7,"00:37:44",1
"18/04/24","00:50",0.0,17.5,77.7,1010.2,303.6,1.0,1.3,313.1,0.00,13.6,17.4,"00:43:52",1
"18/04/24","01:00",0.0,17.4,77.7,1010.4,312.6,1.0,1.3,306.7,0.00,13.5,17.5,"00:59:20",1
"18/04/24","01:10",0.0,17.3,79.1,1010.2,331.2,1.2,1.7,339.8,0.00,13.7,17.2,"01:05:52",1
"18/04/24","01:20",0.0,17.1,80.4,1010.2,312.8,1.1,1.6,310.2,0.00,13.7,17.3,"01:10:48",1
"18/04/24","01:30",0.0,16.9,81.5,1010.0,305.4,0.8,1.6,320.9,0.00,13.8,17.4,"01:27:36",1
"18/04/24","01:40",0.0,16.9,82.0,1010.0,329.1,1.1,1.4,346.0,0.00,13.8,17.1,"01:33:52",1
"18/04/24","01:50",0.0,16.8,82.3,1009.5,301.3,1.0,1.2,322.5,0.00,13.8,17.0,"01:40:32",1
"18/04/24","02:00",0.0,16.7,83.0,1009.5,300.2,0.8,1.3,318.1,0.00,13.8,17.1,"01:54:00",1
"18/04/24","02:10",0.0,16.8,82.5,1010.0,314.9,1.0,1.3,335.5,0.00,13.8,17.3,"02:08:48",1
"18/04/24","02:20",0.0,16.8,82.3,1009.7,303.7,1.0,1.6,324.0,0.00,13.8,16.8,"02:12:56",1
"18/04/24","02:30",0.0,16.8,82.2,1009.5,310.8,1.2,1.9,324.6,0.00,13.8,17.1,"02:22:48",1
"18/04/24","02:40",0.0,16.7,82.6,1009.7,301.3,0.6,1.0,309.7,0.00,13.8,17.1,"02:39:28",1
"18/04/24","02:50",0.0,16.8,83.0,1009.3,324.8,1.0,1.3,358.2,0.00,13.9,16.9,"02:48:00",1
"18/04/24","03:00",0.0,16.9,82.8,1009.5,301.0,0.8,1.3,324.8,0.00,14.0,16.8,"02:51:36",1
"18/04/24","03:10",0.0,16.8,83.3,1009.3,303.7,1.0,1.2,323.0,0.00,14.0,17.0,"03:05:20",1
"18/04/24","03:20",0.0,16.8,83.0,1009.0,311.1,1.0,1.4,312.1,0.00,13.9,17.1,"03:14:56",1
"18/04/24","03:30",0.0,17.0,82.4,1009.0,326.0,1.2,1.8,344.5,0.00,14.0,16.9,"03:26:00",1
"18/04/24","03:40",0.0,16.9,83.2,1009.0,320.0,1.0,1.2,313.5,0.00,14.1,17.0,"03:37:12",1
"18/04/24","03:50",0.0,16.8,84.0,1008.8,313.1,1.1,1.3,325.1,0.00,14.1,16.8,"03:43:28",1
"18/04/24","04:00",0.0,16.7,85.0,1008.8,306.7,0.8,1.0,320.7,0.00,14.2,16.9,"03:51:28",1
"18/04/24","04:10",0.0,16.6,85.4,1008.8,288.2,0.6,0.9,295.3,0.00,14.2,17.0,"04:00:02",1
"18/04/24","04:20",0.0,16.6,85.4,1008.8,298.7,1.0,1.3,311.9,0.00,14.2,17.0,"04:14:48",1
"18/04/24","04:30",0.0,16.8,85.1,1008.6,312.9,0.7,1.1,326.0,0.00,14.3,17.0,"04:20:40",1
"18/04/24","04:40",0.0,17.1,84.5,1008.3,356.5,0.2,0.8,325.8,0.00,14.5,16.8,"04:34:24",1
"18/04/24","04:50",0.0,17.0,84.3,1009.0,310.0,1.1,2.1,333.5,0.00,14.4,16.7,"04:47:44",1
"18/04/24","05:00",0.0,16.9,84.7,1008.6,311.0,0.6,1.4,346.4,0.00,14.3,16.8,"04:59:52",1
"18/04/24","05:10",0.0,16.9,84.4,1008.6,287.0,0.7,1.2,318.3,0.00,14.3,16.7,"05:09:44",1
"18/04/24","05:20",0.0,17.0,83.8,1008.6,298.7,0.8,1.1,280.9,0.00,14.3,16.7,"05:13:20",1
"18/04/24","05:30",0.0,17.1,83.0,1008.3,297.2,0.7,1.6,326.6,0.00,14.2,16.7,"05:29:52",1
"18/04/24","05:40",0.0,17.1,83.1,1008.3,313.0,1.2,1.9,325.6,0.00,14.3,16.6,"05:34:24",1
"18/04/24","05:50",0.0,17.1,83.6,1008.6,323.9,1.1,1.8,331.6,0.00,14.3,16.7,"05:49:28",1
"18/04/24","06:00",0.0,17.1,84.1,1008.6,317.8,1.0,1.6,333.7,0.00,14.4,16.7,"05:50:40",1
"18/04/24","06:10",0.0,17.1,84.8,1008.3,317.0,1.1,1.4,328.5,0.00,14.6,16.7,"06:02:32",1
"18/04/24","06:20",0.0,17.0,85.4,1008.6,309.0,0.8,1.4,349.7,0.00,14.6,16.7,"06:12:40",1
"18/04/24","06:30",0.0,17.1,85.5,1008.8,309.9,1.0,1.3,344.2,0.00,14.7,16.5,"06:23:52",1
"18/04/24","06:40",0.0,17.4,85.1,1008.8,322.0,1.1,1.7,294.6,0.00,14.9,16.6,"06:37:44",1
"18/04/24","06:50",0.2,17.3,86.4,1008.6,317.1,1.0,1.7,306.3,0.00,15.0,16.7,"06:43:20",1
"18/04/24","07:00",0.0,17.2,87.6,1008.3,306.6,1.1,1.8,320.7,0.00,15.2,16.7,"06:50:24",1
"18/04/24","07:10",0.0,17.1,88.6,1008.6,310.6,1.2,2.2,344.3,0.00,15.2,16.7,"07:08:12",1
"18/04/24","07:20",0.0,17.0,89.6,1008.3,305.1,1.1,1.7,314.6,0.00,15.3,16.7,"07:12:16",1
"18/04/24","07:30",0.0,17.1,90.4,1008.6,320.0,1.2,1.6,324.4,0.00,15.6,16.7,"07:22:16",1
"18/04/24","07:40",0.0,17.1,90.6,1008.3,292.6,1.0,1.7,304.3,0.00,15.6,16.6,"07:32:08",1
"18/04/24","07:50",0.0,17.1,90.9,1008.6,288.3,1.1,1.7,278.7,0.02,15.6,16.7,"07:48:32",1
"18/04/24","08:00",0.2,17.2,91.7,1008.3,286.7,1.3,2.1,263.2,0.02,15.9,16.6,"07:52:16",1
"18/04/24","08:10",0.0,17.3,91.6,1008.1,316.5,1.2,1.9,338.2,0.04,16.0,16.8,"08:07:28",1
"18/04/24","08:20",0.0,17.6,92.0,1008.3,286.1,1.1,1.7,324.6,0.05,16.3,16.7,"08:10:16",1
"18/04/24","08:30",0.0,17.7,91.8,1008.1,285.7,1.0,1.3,283.7,0.05,16.4,16.8,"08:20:02",1
"18/04/24","08:40",0.0,17.7,91.6,1007.8,283.8,1.1,1.7,312.3,0.06,16.4,16.8,"08:35:12",1
"18/04/24","08:50",0.2,17.9,91.7,1007.8,309.5,1.1,2.0,321.6,0.06,16.6,16.7,"08:45:12",1
"18/04/24","09:00",0.0,18.3,91.6,1007.8,309.5,1.1,1.3,333.3,0.07,16.9,16.8,"08:52:48",1
"18/04/24","09:10",0.0,18.4,91.2,1007.8,281.9,0.8,1.3,301.2,0.06,17.0,17.0,"09:01:52",1
"18/04/24","09:20",0.0,18.3,91.3,1007.6,279.6,0.8,1.2,250.9,0.07,16.9,17.0,"09:12:48",1
"18/04/24","09:30",0.2,18.5,91.2,1007.8,292.1,0.8,1.4,314.3,0.05,17.1,16.9,"09:21:12",1
"18/04/24","09:40",0.0,18.5,90.7,1007.4,301.6,1.0,1.7,322.1,0.05,17.0,17.3,"09:38:40",1
"18/04/24","09:50",0.0,18.6,90.3,1007.6,326.2,1.5,2.2,326.5,0.07,17.0,17.2,"09:42:48",1
"18/04/24","10:00",0.0,18.8,89.8,1007.6,303.7,1.1,2.5,337.2,0.08,17.1,17.2,"09:52:08",1
"18/04/24","10:10",0.0,19.0,89.1,1007.1,286.7,1.0,1.2,295.9,0.07,17.2,17.3,"10:02:56",1
"18/04/24","10:20",0.0,19.0,88.2,1007.1,288.2,1.0,1.4,312.8,0.06,17.0,17.2,"10:11:04",1
"18/04/24","10:30",0.0,19.2,87.4,1007.4,285.2,0.6,1.1,270.9,0.06,17.1,17.4,"10:29:52",1
"18/04/24","10:40",0.0,18.9,87.0,1007.1,311.1,1.2,1.9,334.1,0.05,16.7,17.3,"10:39:20",1
"18/04/24","10:50",0.2,19.1,88.0,1007.1,306.3,1.1,1.6,329.8,0.05,17.1,17.3,"10:42:40",1
"18/04/24","11:00",0.0,18.8,88.2,1007.1,327.7,1.2,1.9,323.0,0.03,16.8,17.3,"10:56:56",1
"18/04/24","11:10",0.2,18.7,88.7,1006.9,285.9,1.0,1.3,312.1,0.03,16.8,17.4,"11:00:56",1
"18/04/24","11:20",0.2,18.8,89.3,1006.7,302.7,0.8,1.4,314.6,0.05,17.0,17.4,"11:13:44",1
"18/04/24","11:30",0.2,18.9,90.2,1006.4,290.8,0.7,1.3,322.6,0.05,17.3,17.6,"11:28:24",1
"18/04/24","11:40",0.2,18.7,90.4,1006.7,287.6,0.6,1.6,346.3,0.05,17.1,17.5,"11:39:04",1
"18/04/24","11:50",0.2,18.6,90.7,1006.4,308.0,0.7,1.4,248.2,0.04,17.1,17.5,"11:42:24",1
"18/04/24","12:00",0.2,18.5,91.2,1006.4,293.1,0.8,1.6,344.0,0.03,17.1,17.4,"11:59:20",1
"18/04/24","12:10",0.2,18.5,91.6,1006.2,271.3,0.7,1.2,253.7,0.03,17.1,17.6,"12:03:12",1
"18/04/24","12:20",0.2,18.5,91.8,1006.2,262.2,0.6,1.2,305.8,0.05,17.2,17.4,"12:14:32",1
"18/04/24","12:30",0.2,18.6,92.3,1006.0,257.3,0.3,1.2,330.8,0.05,17.4,17.5,"12:26:56",1
"18/04/24","12:40",0.2,18.7,92.1,1005.7,265.3,0.6,1.1,226.7,0.05,17.4,17.2,"12:33:04",1
"18/04/24","12:50",0.2,18.6,92.3,1005.2,140.7,0.6,1.3,115.0,0.04,17.4,17.6,"12:49:28",1
"18/04/24","13:00",0.2,18.6,92.3,1005.2,121.4,0.5,1.7,107.9,0.02,17.4,17.5,"12:51:28",1
"18/04/24","13:10",0.2,18.5,92.5,1005.0,180.1,0.6,1.9,132.9,0.01,17.3,17.4,"13:00:02",1
"18/04/24","13:20",0.4,18.4,92.9,1005.0,222.3,1.5,2.6,229.9,0.03,17.3,17.6,"13:14:40",1
"18/04/24","13:30",0.2,18.3,92.8,1004.8,182.1,1.7,4.0,162.1,0.04,17.2,17.5,"13:26:08",1
"18/04/24","13:40",0.2,18.4,92.6,1004.8,174.6,1.8,3.6,178.0,0.04,17.2,17.4,"13:30:16",1
"18/04/24","13:50",0.0,18.3,92.4,1004.8,177.2,1.3,2.5,187.9,0.05,17.1,17.7,"13:45:52",1
"18/04/24","14:00",0.2,18.3,92.1,1004.3,188.4,1.3,2.5,201.0,0.06,17.0,17.5,"13:51:44",1
"18/04/24","14:10",0.2,18.4,91.9,1004.1,185.5,1.1,2.6,178.0,0.04,17.1,17.5,"14:04:08",1
"18/04/24","14:20",0.4,18.3,91.7,1003.8,183.8,1.2,2.2,177.8,0.02,17.0,17.4,"14:17:28",1
"18/04/24","14:30",0.4,18.4,92.1,1004.1,162.1,1.2,2.5,128.6,0.03,17.1,17.6,"14:27:12",1
"18/04/24","14:40",0.4,18.4,92.1,1003.8,166.0,1.1,2.9,143.9,0.03,17.1,17.7,"14:34:56",1
"18/04/24","14:50",0.2,18.4,92.5,1003.8,210.4,0.6,1.6,192.4,0.02,17.2,17.4,"14:40:08",1
"18/04/24","15:00",0.2,18.2,92.8,1003.6,227.2,0.8,1.9,230.4,0.00,17.1,17.6,"14:58:56",1
"18/04/24","15:10",0.2,18.1,93.1,1003.4,210.0,1.0,2.2,230.6,0.00,17.0,17.7,"15:09:20",1
"18/04/24","15:20",0.4,18.1,93.6,1003.4,217.7,0.8,1.6,231.6,0.00,17.1,17.4,"15:10:16",1
"18/04/24","15:30",0.2,18.1,93.7,1003.4,331.3,0.3,1.1,314.1,0.01,17.1,17.4,"15:28:56",1
"18/04/24","15:40",0.0,18.3,94.1,1003.1,306.5,0.3,0.9,292.4,0.02,17.4,17.3,"15:32:56",1
"18/04/24","15:50",0.0,18.3,94.1,1002.9,332.9,0.8,1.4,336.6,0.02,17.4,17.5,"15:47:36",1
"18/04/24","16:00",0.0,18.2,94.0,1002.6,327.2,0.6,1.7,333.7,0.01,17.3,17.3,"15:57:28",1
"18/04/24","16:10",0.2,18.2,94.2,1002.6,279.1,0.6,1.1,324.0,0.01,17.3,17.5,"16:00:48",1
"18/04/24","16:20",0.2,18.3,94.3,1002.6,267.1,0.7,1.8,326.8,0.00,17.4,17.4,"16:16:32",1
"18/04/24","16:30",0.2,18.0,94.5,1003.1,166.2,0.7,1.9,162.2,0.00,17.1,17.4,"16:24:24",1
"18/04/24","16:40",0.2,18.1,94.5,1002.4,133.7,0.7,1.8,126.6,0.00,17.2,17.4,"16:32:16",1
"18/04/24","16:50",0.2,18.2,94.5,1002.6,123.6,0.3,1.1,129.5,0.00,17.3,17.5,"16:40:16",1
"18/04/24","17:00",0.2,18.2,94.8,1002.9,134.9,0.6,1.6,94.1,0.00,17.4,17.1,"16:59:20",1
"18/04/24","17:10",0.2,18.0,94.6,1002.6,90.7,0.7,1.7,106.3,0.00,17.2,17.2,"17:00:48",1
"18/04/24","17:20",0.2,18.0,94.8,1002.2,114.6,0.6,1.4,119.5,0.00,17.2,17.4,"17:17:04",1
"18/04/24","17:30",0.4,17.9,94.8,1002.6,105.6,0.5,1.6,130.7,0.00,17.1,17.3,"17:26:24",1
"18/04/24","17:40",0.0,17.8,94.9,1002.2,0.1,0.5,1.2,32.4,0.00,17.0,17.2,"17:36:56",1
"18/04/24","17:50",0.4,17.7,94.9,1001.9,120.6,0.3,1.0,17.7,0.00,16.9,17.3,"17:48:32",1
"18/04/24","18:00",0.2,17.7,95.2,1002.2,267.5,0.2,0.6,132.2,0.00,17.0,17.3,"17:54:32",1
"18/04/24","18:10",0.4,17.7,95.1,1002.2,330.2,0.6,1.7,352.4,0.00,16.9,17.3,"18:07:04",1
"18/04/24","18:20",0.2,17.8,95.3,1001.9,315.0,0.5,1.4,0.2,0.00,17.1,17.1,"18:16:32",1
"18/04/24","18:30",0.4,17.7,95.4,1001.9,245.9,0.3,1.2,237.1,0.00,17.0,17.0,"18:23:52",1
"18/04/24","18:40",0.4,17.6,95.3,1001.9,119.8,0.2,1.0,116.5,0.00,16.9,17.2,"18:34:40",1
"18/04/24","18:50",0.0,17.5,95.4,1002.2,95.9,0.6,1.4,135.6,0.00,16.8,17.2,"18:41:44",1
"18/04/24","19:00",0.0,17.4,95.4,1002.2,35.3,0.5,1.4,37.2,0.00,16.7,17.2,"18:54:56",1
"18/04/24","19:10",0.0,17.3,95.4,1001.9,290.8,0.2,0.6,288.5,0.00,16.6,17.2,"19:04:08",1
"18/04/24","19:20",0.0,17.3,95.4,1001.9,289.5,0.6,1.0,251.6,0.00,16.6,17.0,"19:15:52",1
"18/04/24","19:30",0.2,17.3,95.6,1002.4,301.3,1.0,1.4,327.6,0.00,16.6,16.9,"19:22:32",1
"18/04/24","19:40",0.0,17.2,95.7,1001.9,294.1,0.8,1.6,322.1,0.00,16.5,17.0,"19:37:52",1
"18/04/24","19:50",0.2,17.3,95.9,1001.7,315.1,0.8,1.3,337.9,0.00,16.7,17.1,"19:41:36",1
"18/04/24","20:00",0.0,17.2,96.0,1002.2,302.1,0.8,1.2,323.9,0.00,16.6,17.0,"19:54:00",1
"18/04/24","20:10",0.0,17.2,96.1,1002.2,303.1,0.8,1.4,329.3,0.00,16.6,17.0,"20:08:56",1
"18/04/24","20:20",0.2,17.2,96.2,1001.9,310.9,1.2,1.9,322.2,0.00,16.6,17.0,"20:16:32",1
"18/04/24","20:30",0.0,17.1,96.1,1001.2,294.0,1.2,1.8,340.8,0.00,16.5,17.0,"20:23:36",1
"18/04/24","20:40",0.0,17.1,96.4,1001.5,299.0,0.8,1.2,317.5,0.00,16.6,17.0,"20:32:16",1
"18/04/24","20:50",0.0,17.0,96.4,1001.2,297.0,1.0,1.6,317.8,0.00,16.5,17.1,"20:40:32",1
"18/04/24","21:00",0.0,17.1,96.6,1001.5,291.6,1.0,1.7,306.1,0.00,16.6,17.0,"20:52:16",1
"18/04/24","21:10",0.2,17.1,96.5,1001.2,308.2,1.1,1.7,324.9,0.00,16.6,16.9,"21:01:36",1
"18/04/24","21:20",0.0,17.0,96.6,1001.2,304.9,1.0,1.9,333.5,0.00,16.5,16.8,"21:15:04",1
"18/04/24","21:30",0.0,17.0,96.6,1001.0,315.5,1.1,1.7,330.4,0.00,16.5,16.9,"21:22:00",1
"18/04/24","21:40",0.0,16.9,96.7,1001.2,318.3,1.1,2.1,339.2,0.00,16.4,16.7,"21:35:28",1
"18/04/24","21:50",0.0,16.9,96.8,1000.8,310.7,1.0,2.2,337.1,0.00,16.4,17.1,"21:43:04",1
"18/04/24","22:00",0.2,16.9,96.9,1000.3,300.7,0.8,1.7,350.0,0.00,16.4,16.9,"21:50:02",1
"18/04/24","22:10",0.0,17.0,96.9,1000.5,294.6,0.8,1.9,340.6,0.00,16.5,16.8,"22:00:56",1
"18/04/24","22:20",0.4,16.9,96.9,1000.5,308.7,1.0,1.7,259.1,0.00,16.4,16.7,"22:15:52",1
"18/04/24","22:30",0.2,16.9,97.0,1000.3,324.7,0.7,1.3,3.0,0.00,16.5,16.8,"22:20:48",1
"18/04/24","22:40",0.4,16.9,97.0,1000.0,317.7,1.2,2.1,331.5,0.00,16.5,16.7,"22:39:36",1
"18/04/24","22:50",0.4,16.9,97.1,1000.5,321.2,1.1,2.0,333.4,0.00,16.5,16.5,"22:41:36",1
"18/04/24","23:00",0.6,16.9,97.1,999.8,304.4,0.3,1.4,313.0,0.00,16.5,16.8,"22:51:20",1
"18/04/24","23:10",0.4,16.9,97.3,999.8,307.1,0.8,1.3,334.9,0.00,16.5,16.7,"23:08:48",1
"18/04/24","23:20",0.6,16.9,97.3,1000.0,324.5,0.7,1.6,318.6,0.00,16.5,16.9,"23:19:24",1
"18/04/24","23:30",0.6,16.9,97.3,999.3,310.9,1.2,2.0,334.3,0.00,16.5,16.8,"23:27:38",1
"18/04/24","23:40",0.4,16.8,97.4,999.1,322.3,1.2,1.9,342.1,0.00,16.4,16.7,"23:31:12",1
"18/04/24","23:50",0.4,16.8,97.4,999.1,328.7,0.8,1.6,320.8,0.00,16.4,16.7,"23:40:08",1
"18/04/24","24:00",0.4,16.8,97.4,998.9,308.2,1.0,1.8,307.7,0.00,16.4,16.6,"23:53:36",1
